Location: Brookview Estates
(36.0476°N, 86.6931°W)
Time: 18:15:33
(UTC+00:00)

Meteor 2-4 Rocket - Pass Details

Date: 30 March 2020
Orbit: 799 x 909 km, 81.2° (Epoch: 02 June)

Event Time Altitude Azimuth Distance (km) Brightness Sun altitude
Rises 10:47:47 0° 202° (SSW) 3,497 6.6 -10.3°
Reaches altitude 10° 10:50:18 10° 208° (SSW) 2,570 5.8 -9.8°
Maximum altitude 10:55:59 49° 282° (WNW) 1,155 4.1 -8.7°
Drops below altitude 10° 11:01:44 10° 357° (N) 2,598 6.3 -7.5°
Sets 11:04:18 0° 3° (N) 3,538 7.1 -7.0°
